Regional Weather Roundup
Issued by NWS Mobile, AL

Home | Current Version | Previous Version | Text Only | Print | Product List | Glossary On
Versions: 1 2 3 4 5 6 7 8 9 10 11 12 13 14 15 16 17 18 19 20 21 22 23 24 25 26 27 28 29 30 31 32 33 34 35 36 37 38 39 40 41 42 43 44 45 46 47 48 49 50
000
ASUS44 KMOB 242013
RWRMOB
REGIONAL WEATHER ROUNDUP
NATIONAL WEATHER SERVICE MOBILE AL
300 PM CDT WED MAY 24 2017

NOTE: "FAIR" INDICATES FEW OR NO CLOUDS BELOW 12,000 FEET WITH NO
      SIGNIFICANT WEATHER AND/OR OBSTRUCTIONS TO VISIBILITY.

  * THESE STATIONS ARE PART OF THE UNIVERSITY OF SOUTH ALABAMA
    MESONET AND ARE NOT UNDER NWS OR FAA QUALITY CONTROL.

ALZ061>064-242100-
COASTAL ALABAMA

CITY           SKY/WX    TMP DP  RH WIND       PRES   REMARKS
MOBILE REG APT MOSUNNY   75  52  44 W13G21    29.66S
BROOKLEY FIELD PTSUNNY   77  53  43 NW13G32   29.65F
USA CAMPUS*      N/A     75  52  43 W9        29.65S
DOG RIVER*       N/A     75  52  43 NW21      30.28S


CITY           SKY/WX    TMP DP  RH WIND       PRES   REMARKS
GULF SHORES    MOSUNNY   79  56  45 NW13G26   29.62S

$$

ALZ051>060-242100-
INTERIOR SOUTHWEST AND SOUTH CENTRAL ALABAMA

CITY           SKY/WX    TMP DP  RH WIND       PRES   REMARKS
GREENVILLE     MOSUNNY   77  54  44 W12       29.56F
EVERGREEN      MOSUNNY   77  54  44 W13G22    29.60
ATMORE*          N/A     73  54  49 NW16      29.64S
ANDALUSIA/OPP  MOSUNNY   83  58  42 W14G24    29.56F
ANDALUSIA*       N/A     77  57  50 W16       29.58S
FLORALA APT    MOSUNNY   80  59  48 VRB7G17   29.58S
FLORALA*       NOT AVBL

$$

FLZ001>006-242100-
WESTERN FLORIDA PANHANDLE

CITY           SKY/WX    TMP DP  RH WIND       PRES   REMARKS
PENSACOLA      MOSUNNY   81  54  39 W20       29.59F
NAS PENSACOLA  MOSUNNY   81  55  40 NW10G20   29.59F
MILTON         MOSUNNY   79  58  48 NW16G24   29.58F
WHTNG S FIELD  MOSUNNY   80  60  50 NW10G20   29.58F


CITY           SKY/WX    TMP DP  RH WIND       PRES   REMARKS
JAY*             N/A     75  52  43 W16       29.61S
DUKE FIELD     PTSUNNY   82  60  47 W14       29.56F
CRESTVIEW      MOSUNNY   80  60  50 W14G20    29.58F
VALPARAISO     PTSUNNY   81  64  55 W17G25    29.57F
DESTIN         CLOUDY    82  67  60 W10G23    29.58F

$$

MSZ076-079-242100-
INTERIOR SOUTHEAST MISSISSIPPI

CITY           SKY/WX    TMP DP  RH WIND       PRES   REMARKS
LEAKESVILLE*   NOT AVBL
AGRICOLA*        N/A     75  54  46 N3        29.64F

$$

MARINE OBSERVATIONS

STATION/POSITION TIME  TEMP    WIND        PRES    WAVE
                       AIR SEA DIR/SP/G            HT/PER
                 (UTC) (F)     (DEG/KT/KT) (MB)    (FT/S)
PASCAGOULA       1948   75     310/ 14/ 19 1003.8F
PETIT BOIS ISLND 1948   74     290/ 17/ 21 1004.9F
GRAND BAY        1830   75     300/ 11     1005.0S
KATRINA CUT      1930   74     310/ 16     1003.7F
CEDAR POINT      1930   74     320/ 15     1003.4F
E DAUPHIN ISLAND 1900   74     290/ 17/ 19 1003.6R
MIDDLE BAY LIGHT 1930   74     310/ 19     1003.0F
USCG MOBILE BAY  1948   74 78  320/ 11/ 17 1004.4F
STATE DOCKS      1948   81 78              1003.7F
MEAHER PARK      1930   73     300/ 13     1003.4S
FORT MORGAN      1948   74     300/ 17/ 20   N/A
12 S ORANGE BCH  1950   74 78  290/ 21/ 25 1002.4F   4/ 6
PENSACOLA BAY    1948   79 80              1002.3F
64 S DAUPHIN ISL 2000   73 78  290/ 19/ 25 1005.0
67 S FORT MORGAN 1830   75      40/  2     1004.7S

$$

SELECTED LOCATIONS ACROSS THE REGION

CITY           SKY/WX    TMP DP  RH WIND       PRES   REMARKS
NEW ORLEANS    MOSUNNY   77  53  43 W14       29.69F
GULFPORT       MOSUNNY   76  52  43 W12G22    29.65F
PASCAGOULA AP  MOSUNNY   77  50  38 NW12G18   29.65F
PASCAGOULA*    NOT AVBL
HATTIESBURG    MOSUNNY   74  51  44 W15G24    29.65F
LAUREL         NOT AVBL
MERIDIAN       PTSUNNY   73  53  49 W12G20    29.62F
JACKSON        PTSUNNY   70  48  45 W16G22    29.65F
MONTGOMERY     MOSUNNY   77  56  48 W16       29.56S
TROY           MOSUNNY   77  59  53 W13G23    29.56F
ASHFORD*         N/A     77  57  50 W16       29.58S
DOTHAN         PTSUNNY   79  64  60 W15G23    29.57F
PANAMA CITY    PTSUNNY   79  65  62 SW17G23   29.57S

$$




USA.gov is the U.S. government's official web portal to all federal, state and local government web resources and services.